This is the latest recevied weather packets stored in our database for station/object K3RUP-1. If no packets are shown the sender has not sent any weather packets the latest 10 day(s).
| Time | Temp. | Humidity | Pressure | Rain* | Wind** | Luminosity | Snow |
|---|---|---|---|---|---|---|---|
| 1788221420 | 25.56° C | 91% | 1016.9 hPa | 0 mm | - | 0 W/m² | - |
| 1788221114 | 25.56° C | 91% | 1017 hPa | 0 mm | - | 0 W/m² | - |
| 1788220810 | 25.56° C | 91% | 1017 hPa | 0 mm | - | 0 W/m² | - |
| 1788220504 | 25.56° C | 91% | 1017 hPa | 0 mm | - | 0 W/m² | - |
| 1788220199 | 25.56° C | 91% | 1017 hPa | 0 mm | - | 0 W/m² | - |
| 1788219893 | 25.56° C | 91% | 1016.9 hPa | 0 mm | - | 0 W/m² | - |
| 1788219589 | 25.56° C | 90% | 1016.7 hPa | 0 mm | - | 0 W/m² | - |
| 1788219283 | 26.11° C | 90% | 1017 hPa | 0 mm | - | 0 W/m² | - |
| 1788218979 | 25.56° C | 89% | 1017 hPa | 0 mm | - | 0 W/m² | - |
| 1788218675 | 26.11° C | 89% | 1017.1 hPa | 0 mm | - | 0 W/m² | - |
| 1788218371 | 26.11° C | 89% | 1017.4 hPa | 0 mm | - | 2 W/m² | - |
| 1788218067 | 26.11° C | 88% | 1017.4 hPa | 0 mm | - | 2 W/m² | - |
| 1788217763 | 26.67° C | 88% | 1017.4 hPa | 0 mm | - | 3 W/m² | - |
| 1788217457 | 26.11° C | 88% | 1017.6 hPa | 0 mm | - | 6 W/m² | - |
| 1788217151 | 26.11° C | 88% | 1017.4 hPa | 0 mm | - | 11 W/m² | - |
| 1788216847 | 26.67° C | 87% | 1017.5 hPa | 0 mm | - | 16 W/m² | - |
| 1788216542 | 26.67° C | 87% | 1017.4 hPa | 0 mm | - | 19 W/m² | - |
| 1788216242 | 26.67° C | 87% | 1017.5 hPa | 0 mm | - | 21 W/m² | - |
| 1788215936 | 26.67° C | 87% | 1017.5 hPa | 0 mm | - | 18 W/m² | - |
| 1788215632 | 26.67° C | 87% | 1017.9 hPa | 0 mm | - | 15 W/m² | - |
| 1788215329 | 26.67° C | 86% | 1017.8 hPa | 0 mm | - | 12 W/m² | - |
| 1788215024 | 26.67° C | 85% | 1017.9 hPa | 0 mm | - | 11 W/m² | - |
| 1788214719 | 27.22° C | 84% | 1017.9 hPa | 0 mm | - | 10 W/m² | - |
| 1788214415 | 27.22° C | 84% | 1017.9 hPa | 0 mm | - | 12 W/m² | - |
| 1788214110 | 27.22° C | 84% | 1017.8 hPa | 0 mm | - | 22 W/m² | - |
* Rain latest hour (hover to see other rain measurements)
** Current wind speed in m/s (hover to see current wind gust speed)